Location: Carnières
(50.1682°N, 3.3474°E)
Time: 07:02:44
(UTC+00:00)

Cosmos 1908 Rocket - Pass Details

Date: 23 May 2024
Orbit: 602 x 629 km, 82.5° (Epoch: 19 June)

Event Time Altitude Azimuth Distance (km) Brightness Sun altitude
Rises 01:50:52 0° 342° (NNW) 2,923 7.7 -13.8°
Reaches altitude 10° 01:53:16 10° 333° (NNW) 2,007 6.6 -13.6°
Maximum altitude 01:57:15 33° 270° (W) 1,046 4.4 -13.3°
Enters shadow 01:59:33 20° 220° (SW) 1,435 4.8 -13.1°
